single.de alexa rank chart, single.de alexa rank daily changes

single.de alexa rank chart, single.de alexa rank daily changes

single.de
Actual rank:
114 069

RANK HISTORY

Date Rank Diff
2017/01/19 114 069 +1 374
2017/01/18 112 695 +379
2017/01/17 112 316 +72
2017/01/16 112 244 +366
2017/01/15 111 878 +789
2017/01/14 111 089 -2 579
2017/01/13 113 668 +268
2017/01/12 113 400 +209
2017/01/11 113 191 -738
2017/01/10 113 929 -2 009
2017/01/09 115 938 +151
2017/01/08 115 787 +382
2017/01/07 115 405 -2 914
2017/01/06 118 319 -1 161
2017/01/05 119 480 +444
2017/01/04 119 036 -2 945
2017/01/03 121 981 -2 733
2017/01/02 124 714 -2 345
2017/01/01 127 059 +189
2016/12/31 126 870 +3 282
2016/12/30 123 588 -377
2016/12/29 123 965 +615
2016/12/28 123 350 -2 864
2016/12/27 126 214 -3 938
2016/12/26 130 152 -613
2016/12/25 130 765 +36
2016/12/24 130 729 +8
2016/12/23 130 721 +881
2016/12/22 129 840 +4 570
2016/12/21 125 270 +2 358
2016/12/20 122 912 -768
2016/12/19 123 680 -1 294
2016/12/18 124 974 +2 114
2016/12/17 122 860 -967
2016/12/16 123 827 -7
2016/12/15 123 834 -27
2016/12/14 123 861 +1 874
2016/12/13 121 987 +2 149
2016/12/12 119 838 +512
2016/12/11 119 326 +4 342
2016/12/10 114 984 -90
2016/12/09 115 074 +949
2016/12/08 114 125 +2 434
2016/12/07 111 691 +2 560
2016/12/06 109 131 +131
2016/12/05 109 000 +335
2016/12/04 108 665 +3 355
2016/12/02 105 310 +1 784
2016/12/01 103 526 +22
2016/11/30 103 504 -193
2016/11/29 103 697 -200
2016/11/28 103 897 +654
2016/11/27 103 243 +798
2016/11/26 102 445 +1 661
2016/11/25 100 784 +2 128
2016/11/24 98 656 +2 668
2016/11/23 95 988

WIDGET FOR YOUR SITE

DOMAINS WITH THE NEAREST RANK

Domain Rank
episodi.fi 114 064
hs-pforzheim.de 114 065
sounds-resource.com 114 066
icasei.com.br 114 067
rossko.ru 114 068
single.de 114 069
sonokinetic.net 114 070
xchristmas2016.com 114 071
telugu9pm.com 114 072
deref-gmx.es 114 073
raksik.com 114 074

DOMAINS WITH THE NEAREST RANK BY TLD .de

Domain Rank
klassikradio.de 113 755
deinschrank.de 113 777
astroshop.de 113 779
sieh-an.de 114 044
hs-pforzheim.de 114 065
single.de 114 069
seo-united.de 114 139
alex-fischer-duesseldorf.de 114 333
feierabend.de 114 357
recht-finanzen.de 114 415
burgerking.de 114 419